Miscellaneous Local Product
Issued by NWS Hastings, NE

Home | Current Version | Previous Version | Text Only | Print | Product List | Glossary On
Versions: 1 2 3 4 5 6 7 8 9 10 11 12 13 14 15 16 17 18 19 20 21 22 23 24 25 26 27 28 29 30 31 32 33 34 35 36 37 38 39 40 41 42 43 44 45 46 47 48 49 50
000
AXUS43 KGID 200402
MISGRI

GID CWA HOURLY WEATHER ROUNDUP
NATIONAL WEATHER SERVICE HASTINGS NE
1100 PM CDT THU APR 19 2018

NOTE: "FAIR" INDICATES FEW OR NO CLOUDS BELOW 12,000 FEET WITH NO
SIGNIFICANT WEATHER AND/OR OBSTRUCTIONS TO VISIBILITY.

...SOUTH CENTRAL NEBRASKA...

CITY           SKY/WX    TMP DP  RH WIND       PRES   REMARKS
GRAND ISLAND   PTCLDY    42  28  57 SE6       30.36R
KEARNEY        CLOUDY    42  27  55 SE9       30.34R
HASTINGS       CLOUDY    45  27  49 SE7       30.35R
ORD            MOCLDY    34  24  67 CALM      30.33S
YORK             N/A     39  27  60 CALM      30.37R
AURORA         CLOUDY    38  24  57 E7        30.36R WCI  33
LEXINGTON      CLOUDY    45  28  51 E10       30.30F
HOLDREGE       CLOUDY    37  29  72 E9        30.31F WCI  31
HEBRON         CLOUDY    40  26  59 CALM      30.36S

...NEBRASKA PANHANDLE...

CITY           SKY/WX    TMP DP  RH WIND       PRES   REMARKS
CHADRON        CLOUDY    50  28  42 SE17G25   30.13S
ALLIANCE       CLOUDY    45  27  49 SE28G36   30.13S
SCOTTSBLUFF    CLOUDY    49  29  46 SE24G37   30.10R
SIDNEY         CLOUDY    45  27  49 SE22      30.13R

...WESTERN AND NORTH CENTRAL NEBRASKA...

CITY           SKY/WX    TMP DP  RH WIND       PRES   REMARKS
VALENTINE      MOCLDY    42  30  62 E9        30.30R
AINSWORTH      MOCLDY    37  32  82 E8        30.31S WCI  31
ONEILL         PTCLDY    40  30  66 E8        30.36S WCI  34
BROKEN BOW     MOCLDY    43  27  53 E12       30.31S
IMPERIAL       CLOUDY    46  26  45 E21       30.20R
NORTH PLATTE   CLOUDY    41  29  62 SE10      30.26R
MCCOOK         MOCLDY    45  28  51 E13       30.26R

...EASTERN NEBRASKA...

CITY           SKY/WX    TMP DP  RH WIND       PRES   REMARKS
NORFOLK        CLOUDY    38  33  82 E7        30.38R WCI  33
SO SIOUX CITY  CLEAR     34  25  69 SE3       30.43R
TEKAMAH        CLEAR     41  30  65 E9        30.41R
COLUMBUS       CLOUDY    38  28  67 E5        30.39R WCI  34
ALBION         CLOUDY    39  27  62 CALM      30.37S
OMAHA EPPLEY   CLEAR     47  26  44 E12       30.40R
OFFUTT AFB     CLEAR     41  26  55 E7        30.39R
MILLARD        CLEAR     48  28  46 CALM      30.40R
LINCOLN        CLEAR     47  27  45 CALM      30.39R
NEBRASKA CITY  CLEAR     48  29  48 SE5       30.39S
BEATRICE       CLEAR     46  28  50 E3        30.37S
FALLS CITY     CLOUDY    45  26  47 E5        30.39R

...NORTHERN KANSAS...

CITY           SKY/WX    TMP DP  RH WIND       PRES   REMARKS
GOODLAND       MOCLDY    47  25  42 SE21G32   30.17S
HILL CITY      CLOUDY    42  27  55 E8        30.30S
NORTON         CLEAR     43  28  56 E9        30.29R
PHILLIPSBURG   CLEAR     41  27  56 E5        30.33R
SMITH CENTER   CLEAR     39  25  56 E10       30.34R WCI  32
BELOIT         CLEAR     36  19  51 CALM      30.35R
HAYS           CLOUDY    41  26  55 E8        30.32R
RUSSELL        CLOUDY    45  29  53 SE9       30.30S
CONCORDIA      CLEAR     42  25  50 SE5       30.35R
SALINA         CLEAR     46  28  49 SE6       30.35S
TOPEKA         CLOUDY    42  31  64 CALM      30.39R



USA.gov is the U.S. government's official web portal to all federal, state and local government web resources and services.